Location: Armidale
(30.5016°S, 151.6662°E)
Time: 04:26:30
(UTC+10:00)

Hubble Space Telescope - Visible Passes

Search period start: 04 August 2020 00:00
Search period end: 14 August 2020 00:00
Orbit: 536 x 540 km, 28.5° (Epoch: 02 August)

Date Brightness Start Highest point End Pass type
(mag) Time Alt. Az. Time Alt. Az. Time Alt. Az.
04 Aug 2.8 17:41:46 10° NNW 17:44:33 17° NNE 17:47:18 10° ENE visible
04 Aug 2.1 19:21:22 10° WNW 19:24:07 34° NNW 19:24:07 34° NNW visible
05 Aug 1.4 19:10:35 10° WNW 19:14:07 48° NNW 19:14:07 48° NNW visible
06 Aug 0.9 18:59:49 10° WNW 19:03:54 57° N 19:04:05 56° NNE visible
07 Aug 0.9 18:49:05 10° WNW 18:53:11 62° N 18:54:03 48° ENE visible
08 Aug 0.9 18:38:22 10° WNW 18:42:29 65° N 18:44:01 36° ENE visible
09 Aug 0.9 18:27:39 10° W 18:31:47 67° N 18:34:00 26° ENE visible
09 Aug 3.9 20:08:50 10° W 20:09:20 13° W 20:09:20 13° W visible
10 Aug 1.0 18:16:57 10° W 18:21:05 67° N 18:24:00 19° ENE visible
10 Aug 3.5 19:58:11 10° W 19:59:20 17° WNW 19:59:20 17° WNW visible
11 Aug 1.0 18:06:15 10° W 18:10:23 65° N 18:14:02 13° ENE visible
11 Aug 3.1 19:47:33 10° W 19:49:23 22° WNW 19:49:23 22° WNW visible
12 Aug 1.2 17:55:34 10° W 17:59:41 61° N 18:03:46 10° ENE visible
12 Aug 2.7 19:36:58 10° W 19:39:29 26° NW 19:39:29 26° NW visible
13 Aug 1.3 17:44:53 10° W 17:48:57 56° N 17:53:02 10° ENE visible
13 Aug 2.6 19:26:26 10° WNW 19:29:39 25° NNW 19:29:39 25° NNW visible
